This is the latest recevied weather packets stored in our database for station/object DJ2DS-13. If no packets are shown the sender has not sent any weather packets the latest 10 day(s).
| Time | Temp. | Humidity | Pressure | Rain* | Wind** | Luminosity | Snow |
|---|---|---|---|---|---|---|---|
| 1777545584 | 17.22° C | 36% | 1030.6 hPa | 0 mm | - | 731 W/m² | - |
| 1777545283 | 16.67° C | 35% | 1030.6 hPa | 0 mm | - | 728 W/m² | - |
| 1777544984 | 17.22° C | 33% | 1030.6 hPa | 0 mm | - | 724 W/m² | - |
| 1777544684 | 16.67° C | 35% | 1030.7 hPa | 0 mm | - | 721 W/m² | - |
| 1777544382 | 16.67° C | 37% | 1030.7 hPa | 0 mm | - | 716 W/m² | - |
| 1777544082 | 16.67° C | 36% | 1030.6 hPa | 0 mm | - | 714 W/m² | - |
| 1777543783 | 16.67° C | 34% | 1030.7 hPa | 0 mm | - | 709 W/m² | - |
| 1777543483 | 16.67° C | 36% | 1030.6 hPa | 0 mm | - | 703 W/m² | - |
| 1777543182 | 16.11° C | 37% | 1030.6 hPa | 0 mm | - | 696 W/m² | - |
| 1777542883 | 16.11° C | 37% | 1030.8 hPa | 0 mm | - | 689 W/m² | - |
| 1777542582 | 16.11° C | 38% | 1030.8 hPa | 0 mm | - | 684 W/m² | - |
| 1777542282 | 16.11° C | 39% | 1030.8 hPa | 0 mm | - | 677 W/m² | - |
| 1777541982 | 15.56° C | 41% | 1030.8 hPa | 0 mm | - | 666 W/m² | - |
| 1777541680 | 15.56° C | 37% | 1030.8 hPa | 0 mm | - | 649 W/m² | - |
| 1777541379 | 15.56° C | 36% | 1030.9 hPa | 0 mm | - | 612 W/m² | - |
| 1777541078 | 15° C | 38% | 1031 hPa | 0 mm | - | 566 W/m² | - |
| 1777540778 | 15° C | 40% | 1031 hPa | 0 mm | - | 528 W/m² | - |
| 1777540477 | 15° C | 40% | 1031 hPa | 0 mm | - | 494 W/m² | - |
| 1777540176 | 15° C | 39% | 1031 hPa | 0 mm | - | 480 W/m² | - |
| 1777539876 | 15° C | 39% | 1031.1 hPa | 0 mm | - | 485 W/m² | - |
| 1777539576 | 15° C | 41% | 1031.2 hPa | 0 mm | - | 508 W/m² | - |
| 1777539275 | 14.44° C | 39% | 1031.2 hPa | 0 mm | - | 520 W/m² | - |
| 1777538976 | 14.44° C | 40% | 1031.3 hPa | 0 mm | - | 543 W/m² | - |
| 1777538674 | 14.44° C | 39% | 1031.3 hPa | 0 mm | - | 566 W/m² | - |
| 1777538373 | 14.44° C | 41% | 1031.2 hPa | 0 mm | - | 570 W/m² | - |
* Rain latest hour (hover to see other rain measurements)
** Current wind speed in m/s (hover to see current wind gust speed)